Home > Weather > Lichfield > Past weeks

Flag for United Kingdom Past Weather in Lichfield, England, United Kingdom — Yesterday and Last 2 Weeks

Now
55 °F

Scattered showers. Partly sunny.


Feels Like: 52 °F
Forecast: 54 / 60 °F
Wind: 12 mph from North

Location: Birmingham / Airport

Current Time: May 31, 2016 at 5:23:28 PM

Latest Report: May 31, 2016 at 4:50 PM


Visibility: N/A

Pressure: 30.12 "Hg

Humidity: 94%

Dew Point: 54 °F

Location of LichfieldLocation

Past Weather in Lichfield — Graph

°F

Lichfield Temperature Yesterday

Maximum temperature yesterday: 64 °F (at 3:50 PM)
Minimum temperature yesterday: 50 °F (at 4:50 AM)
Average temperature yesterday: 56 °F

High & Low Weather Summary for the Past Weeks

 TemperatureHumidityPressure
High64 °F (May 27, 2:50 PM)100% (May 18, 6:50 AM)30.21 "Hg (May 18, 6:50 AM)
Low45 °F (May 17, 3:50 AM)42% (May 16, 4:20 PM)29.56 "Hg (May 18, 11:20 AM)
Average55 °F77%29.95 "Hg
* Reported May 16 3:20 PM — May 31 3:50 PM, Lichfield, Weather by CustomWeather, © 2016

Note: Actual official high and low records may vary slightly from our data, if they occured in-between our weather recording intervals... More about our weather records

Advertising

Lichfield Weather History for the Previous 24 Hours

Scroll right to see more
 ConditionsComfort  
Time TempWeatherWind HumidityBarometerVisibility
3:50 PM
Tue, May 31
55 °FLight rain. Broken clouds.12 mph88%30.12 "Hg4 mi
3:20 PM59 °FLight rain. Partly sunny.17 mph72%30.09 "HgN/A
2:50 PM59 °FPartly sunny.15 mph72%30.09 "HgN/A
2:20 PM61 °FPartly sunny.18 mph68%30.09 "HgN/A
1:50 PM59 °FPartly sunny.14 mph72%30.09 "HgN/A
1:20 PM59 °FPartly sunny.16 mph72%30.09 "HgN/A
12:50 PM59 °FPartly sunny.14 mph68%30.09 "HgN/A
12:20 PM59 °FPartly sunny.14 mph68%30.09 "HgN/A
11:50 AM59 °FPassing clouds.16 mph68%30.09 "HgN/A
11:20 AM61 °FPassing clouds.20 mph63%30.09 "HgN/A
10:50 AM59 °FPassing clouds.18 mph68%30.09 "HgN/A
10:20 AM57 °FPassing clouds.16 mph72%30.09 "HgN/A
9:50 AM55 °FPassing clouds.15 mph77%30.09 "HgN/A
9:20 AM57 °FPassing clouds.17 mph72%30.09 "HgN/A
8:50 AM55 °FPassing clouds.17 mph72%30.07 "HgN/A
8:20 AM55 °FPassing clouds.16 mph72%30.07 "HgN/A
7:50 AM54 °FSunny.16 mph72%30.07 "Hg10 mi
7:20 AM52 °FSunny.15 mph77%30.07 "Hg10 mi
6:50 AM52 °FSunny.14 mph72%30.07 "Hg10 mi
6:20 AM52 °FSunny.13 mph72%30.07 "Hg10 mi
5:50 AM50 °FSunny.13 mph76%30.07 "Hg10 mi
5:20 AM50 °FClear.12 mph82%30.07 "Hg10 mi
4:50 AM52 °FClear.12 mph77%30.07 "Hg10 mi
4:20 AM52 °FClear.14 mph77%30.07 "Hg10 mi
3:50 AM52 °FClear.14 mph77%30.07 "Hg10 mi
3:20 AM52 °FClear.14 mph77%30.07 "Hg10 mi
2:50 AM54 °FClear.14 mph72%30.07 "Hg10 mi
2:20 AM54 °FClear.14 mph72%30.07 "Hg10 mi
1:50 AM54 °FClear.13 mph72%30.07 "Hg10 mi
1:20 AM54 °FClear.13 mph77%30.09 "Hg10 mi
12:50 AM54 °FClear.13 mph77%30.09 "Hg10 mi
12:20 AM55 °FClear.14 mph72%30.09 "Hg10 mi
11:50 PM
Mon, May 30
55 °FClear.14 mph72%30.09 "Hg10 mi
11:20 PM55 °FClear.14 mph72%30.09 "Hg10 mi
10:50 PM57 °FClear.14 mph72%30.09 "Hg10 mi
10:20 PM57 °FClear.15 mph72%30.09 "Hg10 mi
9:50 PM57 °FSunny.12 mph77%30.09 "Hg10 mi
9:20 PM59 °FPassing clouds.14 mph72%30.09 "HgN/A
8:50 PM59 °FPassing clouds.16 mph72%30.09 "HgN/A
8:20 PM61 °FPassing clouds.16 mph68%30.07 "HgN/A
7:50 PM63 °FPassing clouds.13 mph64%30.07 "HgN/A
7:20 PM63 °FPassing clouds.16 mph64%30.07 "HgN/A
6:50 PM63 °FPassing clouds.15 mph64%30.07 "HgN/A
6:20 PM64 °FPassing clouds.14 mph64%30.07 "HgN/A
5:50 PM63 °FScattered clouds.14 mph68%30.07 "HgN/A
5:20 PM64 °FBroken clouds.15 mph64%30.07 "HgN/A
Weather by CustomWeather, © 2016

See weather overviewHow to use our weather pages